Location: Albany
(35.0000°S, 118.0000°E)
Time: 03:19:21
(UTC-04:00)

Tiangong - Pass Details

Date: 28 June 2021
Orbit: 373 x 386 km, 41.5° (Epoch: 01 August)

Event Time Altitude Azimuth Distance (km) Brightness Sun altitude
Rises 05:41:14 0° 256° (WSW) 2,274 5.9 -7.3°
Reaches altitude 10° 05:43:38 10° 273° (W) 1,410 5.3 -7.8°
Maximum altitude 05:46:06 21° 324° (NW) 930 3.9 -8.3°
Drops below altitude 10° 05:48:27 11° 14° (NNE) 1,359 3.9 -8.7°
Sets 05:50:54 0° 32° (NNE) 2,233 4.8 -9.2°
